Sisseton, SD

12:58 PM CST on March 01, 2017 (GMT -0600)
Sisseton

Weather History for K8D3 - September, 2014

Change the Weather History Date:

Friday, September 5, 2014

  Actual Average Record
Temperature  
Mean Temperature 60 °F 64 °F  
Max Temperature 71 °F 76 °F 98 °F (1978)
Min Temperature 48 °F 52 °F 36 °F (1937)
Degree Days  
Heating Degree Days 5 4  
Month to date heating degree days 5 16  
Since 1 July heating degree days 42 59  
Cooling Degree Days 0 3  
Month to date cooling degree days 10 15  
Year to date cooling degree days 410 494  
Growing Degree Days 9 (Base 50)    
Moisture  
Dew Point 48 °F    
Average Humidity 70    
Maximum Humidity 100    
Minimum Humidity 40    
Precipitation  
Precipitation 0.00 in 0.07 in 2.23 in (2004)
Month to date precipitation 0.01 0.34  
Year to date precipitation 20.97 17.08  
Sea Level Pressure  
Sea Level Pressure 30.14 in    
Wind  
Wind Speed 9 mph (NNW)    
Max Wind Speed 21 mph    
Max Gust Speed 26 mph    
T = Trace of Precipitation, MM = Missing Value Source: NWS Daily Summary

Daily Weather History Graph

Daily Weather History Graph

Search for Another Location

Airport or City:

Trip Planner

Search our weather history database for the weather conditions in past years. The results will help you decide how hot, cold, wet, or windy it might be!

Date:

Astronomy

Sep. 05, 2014 Rise Set
Actual Time 6:54 AM CDT 7:58 PM CDT
Civil Twilight 6:23 AM CDT 8:28 PM CDT
Nautical Twilight 5:47 AM CDT 9:04 PM CDT
Astronomical Twilight 5:08 AM CDT 9:43 PM CDT
Moon 5:35 PM CDT (9/5) 2:40 AM CDT (9/5)
Length of Visible Light 14h 04m
Length of Day
13h 04m
Waxing Gibbous, 84% of the Moon is Illuminated
Sep 5
Waxing Gibbous
Sep 8
Full
Sep 15
Last Quarter
Sep 24
New
Oct 1
First Quarter

Hourly Weather History & Observations

Time (CDT) Temp. Dew Point Humidity Pressure Visibility Wind Dir Wind Speed Gust Speed Precip Events Conditions
12:56 AM 57.0 °F 52.0 °F 83% 29.98 in - NNW 12.7 mph - N/A   Unknown
1:56 AM 55.0 °F 53.1 °F 93% 30.00 in - NNW 11.5 mph - N/A   Unknown
2:56 AM 54.0 °F 53.1 °F 97% 30.02 in - NNW 6.9 mph - N/A   Unknown
3:56 AM 55.9 °F 53.1 °F 90% 30.05 in - NNW 9.2 mph - N/A   Unknown
4:56 AM 55.0 °F 51.1 °F 86% 30.08 in - North 13.8 mph 25.3 mph N/A   Unknown
5:56 AM 51.1 °F 48.9 °F 92% 30.12 in - NNW 10.4 mph - N/A   Unknown
6:56 AM 48.9 °F 48.0 °F 97% 30.16 in - NNW 6.9 mph - N/A   Unknown
7:56 AM 52.0 °F 48.9 °F 89% 30.19 in - NNW 5.8 mph - N/A   Unknown
8:56 AM 55.9 °F 48.9 °F 77% 30.18 in - North 12.7 mph - N/A   Unknown
9:56 AM 55.9 °F 48.0 °F 75% 30.18 in - North 10.4 mph - N/A   Unknown
10:56 AM 59.0 °F 48.0 °F 67% 30.19 in - North 11.5 mph - N/A   Unknown
11:56 AM 60.1 °F 48.0 °F 64% 30.21 in - North 6.9 mph - N/A   Unknown
12:56 PM 64.9 °F 48.0 °F 54% 30.20 in - North 5.8 mph - N/A   Unknown
1:56 PM 66.9 °F 45.0 °F 45% 30.19 in - NNW 6.9 mph - N/A   Unknown
2:56 PM 69.1 °F 46.0 °F 44% 30.18 in - North 10.4 mph - N/A   Unknown
3:56 PM 70.0 °F 46.9 °F 44% 30.16 in - NNW 12.7 mph 17.3 mph N/A   Unknown
4:56 PM 69.1 °F 45.0 °F 42% 30.16 in - NNW 11.5 mph - N/A   Unknown
5:56 PM 69.1 °F 46.0 °F 44% 30.14 in - NNW 9.2 mph - N/A   Unknown
6:56 PM 66.9 °F 48.0 °F 51% 30.15 in - NW 6.9 mph - N/A   Unknown
7:56 PM 60.1 °F 48.0 °F 64% 30.15 in - West 4.6 mph - N/A   Unknown
8:56 PM 57.0 °F 48.0 °F 72% 30.16 in - West 6.9 mph - N/A   Unknown
9:56 PM 54.0 °F 48.9 °F 83% 30.16 in - WSW 5.8 mph - N/A   Unknown
10:56 PM 57.0 °F 46.9 °F 69% 30.15 in - WNW 6.9 mph - N/A   Unknown
11:56 PM 60.1 °F 46.0 °F 60% 30.15 in - West 11.5 mph - N/A   Unknown